Showing default

ZHUHAI-1 03B, 44536

Orbit data source: Space-Track

ZHUHAI-1 03B, 44536 is a payload satellite owned by Zhuhai Orbita (CN) in SSO that was launched on Thu, 19 Sep 2019 UTC via a CHANG ZHENG 11 launch vehicle from the Jiuquan Satellite Launch Center, China (JSC). Payload-class satellites include a variety of spacecraft equipped with specific instruments for various scientific and technological missions. These include communications satellites like Starlink; space stations such as the ISS; scientific satellites like the Hubble; Earth observation satellites from companies like Planet Labs, Umbra, and HawkEye 360; GPS; miniature CubeSats for education and research; and military/defense satellites.

Loading next visibility...
Identifier
44536, 2019-060C
Orbit
SSO
Last TLE update
6 hours ago
Origin
Manufacturer
Harbin
Mission
Operational Commercial Imaging
Bus & Motor
OHS-1, Unknown motor
Mass
69 kg wet, ~69 kg dry
Launch date (UTC)
2019-09-19 (6 years ago)
Launch vehicle
CHANG ZHENG 11
Launch site
Jiuquan Satellite Launch Center, China (JSC)
Object type
Payload
Rocket body
Debris
Shape & HBR
Box, Unknown HBR
Radar Cross Section
0.280 m², Medium (>0.1 m² and < 1m²)

Expand to show TLE details & history

TLE from 6 hours ago
0 ZHUHAI-1 03B
1 44536U 19060C   25182.17776162  .00013095  00000-0  40650-3 0  9999
2 44536  97.5202 322.9254 0014399 143.1345 217.0890 15.33410444322208
Epoch: 2025-07-01T04:15Z
TLE epoch observation values (Epoch: 2025-07-01T04:15:58.603Z)
Latitude
-0.00004°
Longitude
-20.54573°
Altitude
476.619 km
Speed
7.623 km/s
True Right ascension
21h 31m 42s
True Declination
0° 00' 00"
Sunlit
Object was in full shadow at epoch
Visualization orbit readout
Latitude
-79.1886°
Longitude
23.13498°
Altitude
500.649 km
Speed
7.609 km/s
Apparent Right ascension
09h 01m 07s
Apparent Declination
-69° 45' 31"
Sunlit
Object is in full shadow
Visualization observer readout
Local Sidereal Time
21:48:44
Azimuth
171.916° S
Elevation
-59.507°
Doppler factor
1
Orbital elements
Apogee altitude
472.449 km
Perigee altitude
452.749 km
Semi-major axis
6,840.736 km
Eccentricity
0.00144
Inclination
97.5202°
RAAN
322.9254°
Arg. of periapsis
143.1345°
True anomaly
Unknown
Mean anomaly
217.089°
Eccentric anomaly
Unknown
Mean motion
3.83609 °/min
Orbital period
93.85 mins
BSTAR
0.0004065
Loading maneuver chart data...
Loading SW <> Apogee altitude chart data...
Loading historical data...
Loading historical data...
Loading historical data...
Loading historical data...
Loading historical data...
Loading historical data...
Loading historical data...

ZHUHAI-1 03B Visibility forecast

Observer location: undefined°, undefined°

Span
Click to sort rows by Start time (UTC) header in descending order
Start Az.
Max El. time (UTC)
Max El. Az.
Max El.
End time (UTC)
End Az.
6 mins2025-07-01 22:03:19.907Z22.993° NE2025-07-01 22:06:19.907Z114.921° SE39.304°2025-07-01 22:09:19.907Z179.336° S
|